TimeMDT,TemperatureF,Dew PointF,Humidity,Sea Level PressureIn,VisibilityMPH,Wind Direction,Wind SpeedMPH,Gust SpeedMPH,PrecipitationIn,Events,Conditions,WindDirDegrees,DateUTC
12:53 AM,60.1,51.1,72,29.88,10.0,SSE,12.7,-,N/A,,Clear,150,2013-07-08 06:53:00
1:53 AM,59.0,50.0,72,29.86,10.0,SSE,5.8,-,N/A,,Partly Cloudy,160,2013-07-08 07:53:00
2:53 AM,54.0,50.0,86,29.89,10.0,SSW,3.5,-,N/A,,Scattered Clouds,210,2013-07-08 08:53:00
3:53 AM,61.0,44.1,54,29.86,10.0,West,5.8,-,N/A,,Overcast,260,2013-07-08 09:53:00
4:53 AM,60.1,42.1,51,29.86,10.0,South,8.1,-,N/A,,Clear,180,2013-07-08 10:53:00
5:53 AM,57.9,43.0,58,29.86,10.0,SW,8.1,-,N/A,,Clear,220,2013-07-08 11:53:00
6:53 AM,57.9,44.1,60,29.89,10.0,Calm,Calm,-,N/A,,Clear,0,2013-07-08 12:53:00
7:53 AM,66.0,44.1,45,29.90,10.0,West,4.6,-,N/A,,Clear,280,2013-07-08 13:53:00
8:53 AM,71.1,44.1,38,29.92,10.0,WSW,6.9,-,N/A,,Clear,240,2013-07-08 14:53:00
9:53 AM,75.9,41.0,29,29.90,10.0,West,13.8,-,N/A,,Clear,270,2013-07-08 15:53:00
10:53 AM,80.1,39.9,24,29.89,10.0,WSW,21.9,26.5,N/A,,Clear,240,2013-07-08 16:53:00
11:53 AM,82.0,39.0,22,29.89,10.0,WSW,17.3,33.4,N/A,,Clear,250,2013-07-08 17:53:00
12:53 PM,82.0,37.0,20,29.88,10.0,WNW,18.4,26.5,N/A,,Mostly Cloudy,300,2013-07-08 18:53:00
1:53 PM,77.0,39.0,25,29.89,10.0,SW,36.8,47.2,N/A,,Scattered Clouds,230,2013-07-08 19:53:00
2:53 PM,80.1,37.9,22,29.93,10.0,West,23.0,35.7,N/A,,Partly Cloudy,280,2013-07-08 20:53:00
3:53 PM,82.9,37.9,20,29.88,10.0,West,12.7,21.9,N/A,,Clear,270,2013-07-08 21:53:00
4:46 PM,77.0,41.0,28,30.25,10.0,NNW,17.3,-,N/A,,Overcast,330,2013-07-08 22:46:00
4:53 PM,79.0,42.1,27,29.89,10.0,NNW,27.6,33.4,N/A,,Mostly Cloudy,330,2013-07-08 22:53:00
5:53 PM,70.0,50.0,49,29.95,2.5,WNW,16.1,-,0.04,Rain-Thunderstorm,Thunderstorms and Rain,300,2013-07-08 23:53:00
6:06 PM,64.4,50.0,59,30.28,1.8,West,8.1,31.1,0.09,Rain,Rain,280,2013-07-09 00:06:00
6:14 PM,66.2,51.8,60,30.27,2.0,WNW,11.5,-,0.13,Rain,Rain,300,2013-07-09 00:14:00
6:27 PM,69.8,50.0,49,30.27,10.0,NW,6.9,-,0.13,,Mostly Cloudy,310,2013-07-09 00:27:00
6:53 PM,71.1,48.9,45,29.93,10.0,SSE,4.6,-,0.13,,Partly Cloudy,160,2013-07-09 00:53:00
7:53 PM,68.0,54.0,61,29.92,10.0,SE,5.8,-,N/A,,Clear,140,2013-07-09 01:53:00
8:53 PM,64.0,55.9,75,29.93,10.0,West,3.5,-,N/A,,Clear,270,2013-07-09 02:53:00
9:53 PM,63.0,51.1,65,29.94,10.0,SSW,4.6,-,N/A,,Clear,210,2013-07-09 03:53:00
10:53 PM,60.1,51.1,72,29.94,10.0,SSW,6.9,-,N/A,,Clear,200,2013-07-09 04:53:00
11:53 PM,57.9,50.0,75,29.95,10.0,SW,6.9,-,N/A,,Clear,220,2013-07-09 05:53:00